NOAA 16 DEB, 41504

Orbit data source: Space-Track

NOAA 16 DEB, 41504 is space debris in SSO originally from a launch on Thu, 21 Sep 2000 UTC launched from the Air Force Western Test Range (AFWTR). Debris objects in space refer to the collection of defunct objects orbiting the Earth. Examples of debris include non-operational satellites, rocket bodies, and fragments generated from explosions, collisions, or faulty payload assembly.

Loading next visibility...
Identifier
41504, 2000-055MC
Orbit
SSO
Country
Flag of USUS
Related business
Manufacturer
Unknown
Mission
Spacecraft
Bus & Motor
Unknown
Mass
Unknown
Launch date (UTC)
2000-09-21 (26 years ago)
Launch vehicle
Unknown
Launch site
Air Force Western Test Range (AFWTR)
Object type
Payload
Rocket body
Debris
Shape & HBR
Unknown shape, 0.1 m
Radar Cross Section
Medium (>0.1 m² and <1 m²)

Expand to show TLE details & history
Last TLE update: 1 day ago

TLE from 1 day ago
0 NOAA 16 DEB
1 41504U 00055MC  26206.14095791  .00004009  00000-0  16397-2 0  9997
2 41504  98.7608 278.6244 0026156  16.7943 343.4097 14.27610395536919
Epoch: 2026-07-25T03:22Z
TLE epoch observation values (Epoch: 2026-07-25T03:22:58.763Z)
Latitude
-0.0001°
Longitude
-74.97794°
Altitude
784.66 km
Speed
7.471 km/s
True Right ascension
18h 34m 29s
True Declination
0° 00' 00"
Sunlit
Object was in full shadow at epoch
Visualization orbit readout
Latitude
Unknown
Longitude
Unknown
Altitude
Unknown
Speed
Unknown
Apparent Right ascension
Unknown
Apparent Declination
Unknown
Sunlit
N/A
Visualization observer readout
Local Sidereal Time
23:43:19
Azimuth
Unknown
Elevation
Unknown
Doppler factor
Unknown
Orbital elements
Apogee altitude
815.647 km
Perigee altitude
778.113 km
Semi-major axis
7,175.017 km
Eccentricity
0.00262
Inclination
98.7608°
RAAN
278.6244°
Arg. of periapsis
16.7943°
True anomaly
343.32385°
Mean anomaly
343.4097°
Eccentric anomaly
343.3668°
Mean motion
3.57116 °/min
Orbital period
100.81 mins
BSTAR
0.0016397
Loading maneuver chart data...
Computing Atmospheric mass density...
Loading historical data...
Loading historical data...
Loading historical data...
Loading historical data...
Loading historical data...
Loading historical data...
Loading historical data...

Documentation

Showing up to 5 results
|